Regional Weather Roundup
Issued by NWS Wilmington, NC

Home | Current Version | Previous Version | Text Only | Print | Product List | Glossary On
Versions: 1 2 3 4 5 6 7 8 9 10 11 12 13 14 15 16 17 18 19 20 21 22 23 24 25 26 27 28 29 30 31 32 33 34 35 36 37 38 39 40 41 42 43 44 45 46 47 48 49 50
000
ASUS42 KILM 262213
RWRILM
RWRILM
REGIONAL HOURLY WEATHER ROUNDUP
NATIONAL WEATHER SERVICE WILMINGTON NC
500 PM EST SUN FEB 26 2017

NOTE: "FAIR" INDICATES FEW OR NO CLOUDS BELOW 12,000 FEET WITH NO
SIGNIFICANT WEATHER AND/OR OBSTRUCTIONS TO VISIBILITY.

...............WFO WILMINGTON COUNTY WARNING AREA...............

......COASTAL NC AND SC COUNTIES......

CITY           SKY/WX    TMP DP  RH WIND       PRES   REMARKS
WILMINGTON     SUNNY     61  19  19 CALM      30.19R
N MYRTLE BEACH SUNNY     57  33  40 S8        30.20R
MYRTLE BEACH   SUNNY     57  32  38 S12       30.21R

......INLAND NC AND SC COUNTIES.......

CITY           SKY/WX    TMP DP  RH WIND       PRES   REMARKS
LUMBERTON      SUNNY     58  19  22 W10       30.20R
ELIZABETHTOWN  SUNNY     59  20  22 W5        30.20R
WHITEVILLE     SUNNY     59  20  22 W5        30.20R
FLORENCE       SUNNY     59  19  21 W7        30.20R
DARLINGTON     SUNNY     60  20  21 SW7       30.21R
KINGSTREE      FAIR      61  16  17 CALM      30.20R
HARTSVILLE     FAIR      59  18  20 W3        30.19R
BENNETTSVILLE  NOT AVBL
CONWAY         FAIR      59  21  23 CALM      30.20S HAZE
GEORGETOWN     FAIR      57  32  38 SE8       30.21R
MARION         FAIR      59  21  23 W7        30.20R

....................REST OF NORTH CAROLINA......................

.........EASTERN NC.........

CITY           SKY/WX    TMP DP  RH WIND       PRES   REMARKS
CAPE HATTERAS  SUNNY     54  32  43 VRB3      30.20R
JACKSONVILLE   SUNNY     58  21  24 VRB5      30.20R
MOREHEAD CITY  SUNNY     57  31  37 SW10      30.19R
KENANSVILLE    SUNNY     57  18  21 W7        30.19S
NEW BERN       SUNNY     57  19  22 W8        30.20R
ELIZABETH CITY SUNNY     54  23  30 W9        30.18R

.........CENTRAL NC.........

CITY           SKY/WX    TMP DP  RH WIND       PRES   REMARKS
RALEIGH DURHAM SUNNY     55  14  19 W8        30.19R
ROCKY MOUNT    SUNNY     54  18  24 W7        30.19R
ROANOKE RAPIDS NOT AVBL
FAYETTEVILLE   SUNNY    N/A N/A N/A SW6       30.18R
HOFFMAN        SUNNY     57  17  20 NW7       30.19R

.........WESTERN NC.........

CITY           SKY/WX    TMP DP  RH WIND       PRES   REMARKS
CHARLOTTE      MOSUNNY   56  14  19 VRB7      30.19R
GREENSBORO     MOSUNNY   53  12  19 NW7       30.17R
HICKORY        NOT AVBL
BOONE          NOT AVBL
ASHEVILLE      NOT AVBL

.....................REST OF SOUTH CAROLINA.....................

.........EASTERN SC.........

CITY           SKY/WX    TMP DP  RH WIND       PRES   REMARKS
CHARLESTON     SUNNY     60  34  37 S10       30.19R
BEAUFORT MCAS  MOSUNNY   64  41  42 SE9       30.20R
HILTON HEAD    SUNNY     61  36  39 S7        30.22R

.........CENTRAL SC.........

CITY           SKY/WX    TMP DP  RH WIND       PRES   REMARKS
COLUMBIA       SUNNY     63  19  18 N5        30.19R
ORANGEBURG     SUNNY     63  16  16 SW7       30.19R
SUMTER SHAW    SUNNY     62  13  14 W7        30.17R

.........WESTERN SC.........

CITY           SKY/WX    TMP DP  RH WIND       PRES   REMARKS
GREENVILLE     NOT AVBL
ROCK HILL      SUNNY     57  12  17 NW3       30.19R
ANDERSON       SUNNY     60  15  17 S10       30.17R
CLEMSON        NOT AVBL
GREENWOOD      SUNNY     61  13  15 W8        30.20R


...................COASTAL AND OFFSHORE REPORTS..................

................LOCAL PIERS AND NC RESERVE................


STATION/POSITION TIME  SKY/WX   TEMP    WIND        PRES    VSBY
                                AIR SEA DIR/SP/G
                 (UTC)          (F)     (DEG/KT/KT) (MB)    (MI)
JOHNY MRCER PIER 2148            55 59  180/ 14/ 16 1021.4R
NC RESRV MASNBRO 2045            58     210/  5     1021.0
OCEAN CREST PIER NOT AVBL
SPRINGMAID  PIER 2148                               1022.1R


................COASTAL AND OFFSHORE BUOYS................


STATION/POSITION TIME  SKY/WX   TEMP    WIND        PRES    VSBY
                                AIR SEA DIR/SP/G
                 (UTC)          (F)     (DEG/KT/KT) (MB)    (MI)
DIMNDSHOAL 41025 2150            54 72  270/  8/ 12 1022.8R
WVE H/P(F/S)=  4/ 9 SWL H/P/D(F/S/D)=  3/130/ 9

CAPE LOOKOUT     2200            55     220/  6/  7 1022.4R
ONSLOW BAY 41036 NOT AVBL
ONSLOW BAY 41064 2108            54     240/  6/ 10 1022.8R
ONSLOW BAY 41159 2143               65                N/A
WVE H/P(F/S)=  3/ 9 SWL H/P/D(F/S/D)=  2/120/11

MASNBO INL 41110 2159               59                N/A
WVE H/P(F/S)=  2/ 9

WILM HARBR 41108 2147               59                N/A
WVE H/P(F/S)=  2/ 9

27SE WRITB 41037 2108            55 61  220/  6/ 10 1021.7R
FRYING PAN 41013 2150            56 69  260/  4/  8 1022.9S
WVE H/P(F/S)=  3/ 9 SWL H/P/D(F/S/D)=  3/110/ 9

SUNST NRSH 41024 2108            56 61  200/ 10/ 12 1022.2R
CAPRS NRSH 41029 2108            56 62  190/  8/ 12 1022.6R
EDISTO     41004 2150            59 70  180/  4/  6 1023.0R
WVE H/P(F/S)=  3/ 9 SWL H/P/D(F/S/D)=  3/120/ 9



..........OFFSHORE BUOYS BEYOND 100 NM OFFSHORE...........
.....IN A TRIANGLE---HAT TO BERMUDA TO BAHAMAS TO HAT.....


STATION/POSITION TIME  SKY/WX   TEMP    WIND        PRES    VSBY
                                AIR SEA DIR/SP/G
                 (UTC)          (F)     (DEG/KT/KT) (MB)    (MI)
150E HAT   41001 NOT AVBL
W BERMUDA  41048 2150            71 70  250/ 10/ 12 1019.2R
WVE H/P(F/S)=  5/ 7 SWL H/P/D(F/S/D)=  5/150/ 7

ATLANTIC S 41049 2150            75 75   CALM  /  2 1022.1R
WVE H/P(F/S)=  4/ 8 SWL H/P/D(F/S/D)=  5/100/ 8

E BAHAMAS  41046 2150            78 78   80/ 12/ 14 1017.8R
WVE H/P(F/S)=  3/11 SWL H/P/D(F/S/D)=  3/11

NE BAHAMAS 41047 2150            75 76   CALM  /  4 1020.0R
WVE H/P(F/S)=  4/10 SWL H/P/D(F/S/D)=  3/ 60/10

120E CANVRL41010 NOT AVBL

END



USA.gov is the U.S. government's official web portal to all federal, state and local government web resources and services.